Location: Castor Station
(37.5278°N, 90.1696°W)
Time: 05:35:32
(UTC+00:00)

Daily predictions for brighter satellites

Satellite Brightness Start Highest point End
(mag) Time Altitude Azimuth Time Altitude Azimuth Time Altitude Azimuth
Cosmos 1943 Rocket 4.5 00:52:39 10° WSW 00:57:27 30° WNW 01:02:20 10° N
Cosmos 1331 Rocket 4.1 00:56:05 10° SSW 01:01:17 90° ESE 01:06:34 10° NNE
Cosmos 1953 2.8 00:58:37 10° SSE 01:02:06 35° E 01:05:36 10° NNE
Cosmos 1850 Rocket 4.2 00:57:10 10° N 01:02:22 55° ENE 01:07:30 10° SSE
CZ-4B R/B 2.7 00:58:37 10° SSE 01:02:23 62° ENE 01:06:00 10° N
Cosmos 2297 3.7 01:00:15 10° SSW 01:05:53 88° ESE 01:11:37 10° NNE
SL-08 R/B 4.3 01:02:46 10° N 01:07:21 53° WNW 01:11:59 10° SSW
Meteor PRIRODA 4.2 01:05:12 10° S 01:08:32 57° W 01:11:56 10° NNW
CZ-4B DEB 4.2 01:04:10 10° SSE 01:09:40 73° ENE 01:15:13 10° N
ADEOS Rocket 3.3 01:05:18 10° S 01:10:52 65° WSW 01:16:20 10° NNW
SJ 16-02 2.8 01:11:09 10° NNE 01:14:25 21° ENE 01:17:18 12° ESE
Cosmos 2369 Rocket 2.2 01:09:37 10° SSW 01:15:17 77° ESE 01:20:58 10° NNE
ADEOS 4.1 01:10:44 10° S 01:15:53 64° WSW 01:21:05 10° NNW
NOSS 2-2 (C) 3.9 01:15:08 10° SW 01:18:32 49° NW 01:21:36 10° NNE
Cosmos 1441 Rocket 4.5 01:15:11 10° SSW 01:18:44 44° WNW 01:22:21 10° N
SL-8 Rocket 4.3 01:12:57 10° N 01:18:52 45° ENE 01:24:43 10° SSE
Iridium 82 4.4 01:15:25 10° N 01:18:57 78° E 01:22:36 10° S
APEX 4.4 01:21:05 10° NW 01:23:59 31° WSW 01:26:41 10° S
SPOT 1/Viking Rocket 3.6 01:19:01 10° SSE 01:24:08 60° ENE 01:29:16 10° N
Cosmos 2263 4.2 01:18:37 10° S 01:24:11 65° ESE 01:29:45 10° NNE
Cosmos 2098 Rocket 4.4 01:20:20 10° SSE 01:24:55 27° E 01:28:54 10° NE
CZ-4B R/B 3.4 01:23:59 10° SSE 01:29:31 60° ENE 01:35:02 10° N
Cosmos 2341 Rocket 4.0 01:23:54 10° N 01:30:09 62° E 01:36:17 10° SSE
Okean-O 4.2 01:28:33 14° E 01:30:20 18° ENE 01:33:14 10° NNE
Cosmos 1674 Rocket 4.1 01:26:07 10° NNW 01:30:30 62° W 01:34:53 10° S
PSLV R/B 4.5 01:28:18 15° SE 01:30:47 31° ENE 01:34:06 10° N
Cosmos 1825 2.0 01:27:29 10° N 01:30:52 55° E 01:34:15 10° SSE
USA 234 3.3 01:28:21 13° ESE 01:34:15 70° NE 01:40:45 10° NW
NOSS 3-1 (C) 3.0 01:32:17 10° SSW 01:36:48 51° ESE 01:41:59 10° NE
Cosmos 2082 Rocket 4.4 01:33:44 10° NW 01:38:19 25° WSW 01:42:51 10° SSW
Hubble Space Telescope 2.2 01:37:06 10° SW 01:40:11 22° S 01:41:39 18° SSE
Resurs 1-3 4.1 01:38:19 10° S 01:42:37 62° W 01:46:56 10° NNW
Cosmos 2366 rocket 4.0 01:43:24 10° N 01:49:46 72° E 01:56:05 10° SSE
Cosmos 1025 Rocket 2.9 01:47:03 10° N 01:51:25 81° E 01:55:30 12° S
Okean O Rocket 1.6 01:49:28 18° SSE 01:52:31 61° ENE 01:56:49 10° N
Cosmos 2218 Rocket 4.0 01:50:40 10° N 01:57:06 79° E 02:03:26 10° S
ATLAS 3B R/B 3.0 01:51:41 10° S 01:58:08 45° ESE 02:05:04 10° NE
Resurs 01 Rocket 1.5 01:55:01 18° SSE 01:58:11 73° ENE 02:02:35 10° N
CARTOSAT-1 3.4 01:58:16 23° SSE 02:00:49 69° ENE 02:05:04 10° N
Cosmos 1346 Rocket 3.7 01:57:58 10° SSW 02:01:40 47° WNW 02:05:22 10° N
Cosmos 1975 Rocket 3.1 01:59:16 10° N 02:03:32 56° E 02:05:11 33° SE
USA 281 3.3 01:59:34 23° SE 02:03:44 58° ENE 02:10:10 10° NNW
Cosmos 1821 Rocket 4.1 01:59:20 10° N 02:05:21 51° E 02:08:32 26° SE
USA 129 3.4 02:03:21 10° N 02:05:09 30° NNW 02:05:09 30° NNW
Cosmos 1959 Rocket 4.4 02:01:07 10° N 02:07:17 89° E 02:13:23 10° S
Cosmos 1328 4.3 02:05:06 10° NNW 02:08:48 56° W 02:11:47 15° S
OAO 3 Rocket 3.3 02:07:06 10° W 02:11:56 64° S 02:13:29 41° ESE
DELTA 2 R/B (1) 4.1 02:13:00 10° W 02:18:22 47° SSW 02:20:22 33° SSE
USA 186 3.6 02:16:16 14° SSW 02:18:23 28° W 02:21:06 10° NW
CZ-4 R/B 3.8 02:20:21 10° SW 02:23:19 20° W 02:26:17 10° NW
ATLAS 5 CENTAUR R/B 1.1 02:20:55 10° SW 02:24:13 69° NW 02:27:41 10° NNE
SPOT 5 3.5 02:24:44 40° E 02:25:31 43° ENE 02:30:32 10° N
Meteor 1-11 4.1 02:28:44 10° N 02:34:25 86° E 02:36:33 41° SSE
ERS-1 Rocket 3.9 02:36:16 32° ENE 02:36:16 32° ENE 02:40:17 10° N
Celestis-02/Orion 38 4.4 02:40:45 63° ESE 02:41:27 73° ENE 02:46:30 10° NNW
MOS 1 4.2 02:45:26 51° SSE 02:47:00 89° WSW 02:52:44 10° NNW
Okean 2 Rocket 3.8 02:52:04 45° NNE 02:52:04 45° NNE 02:55:17 10° NNE
Cosmos 1934 Rocket 4.2 02:45:27 10° N 02:51:24 50° E 02:51:27 50° E
SJ 16-02 2.9 02:49:01 10° NW 02:52:47 30° W 02:54:06 25° SW
OAO 1 Rocket 4.5 02:50:26 10° W 02:55:16 64° SSW 02:55:16 64° SSW
IRS-1C Rocket 3.9 02:56:50 81° SE 02:57:07 87° ENE 03:02:25 10° NNW
Cosmos 2297 Rocket 3.9 02:56:07 10° N 02:59:36 20° NE 02:59:36 20° NE
NOSS 3-1 (A) 3.2 02:59:01 10° SW 03:03:46 66° NW 03:09:19 10° NNE
MetOp-B 4.1 03:05:02 74° SW 03:05:20 78° WSW 03:10:43 10° NNW
Spot 2 Rocket 4.3 03:07:31 41° NNE 03:07:31 41° NNE 03:11:10 10° N
Okean-O 3.7 03:06:02 38° WSW 03:06:24 38° W 03:10:31 10° NNW
Sich 1 Rocket 4.5 03:07:42 45° N 03:07:42 45° N 03:10:51 10° N
Terra 2.8 03:09:26 39° NNE 03:09:26 39° NNE 03:12:35 10° N
USA 234 4.5 03:15:43 26° SSW 03:17:30 29° SW 03:23:05 10° WNW
IRS-1A Rocket 4.5 03:20:51 67° WSW 03:21:11 68° WSW 03:27:04 10° NNW
USA 245 4.3 03:22:35 71° NW 03:22:35 71° NW 03:27:12 10° NNW
Ariane Rocket 3.8 03:27:13 46° N 03:27:13 46° N 03:30:45 10° N
SPOT 3 Rocket 4.4 03:34:30 46° N 03:34:30 46° N 03:38:05 10° N
ATLAS 3B R/B 4.1 03:42:28 10° WSW 03:48:57 38° NW 03:55:53 10° NNE
Cosmos 1605 Rocket 4.5 03:50:29 10° N 03:55:31 58° NNW 03:55:31 58° NNW
Cosmos 2227 Rocket 3.9 04:10:15 10° N 04:12:58 26° N 04:12:58 26° N
CZ-4C R/B 3.7 04:30:29 10° NNW 04:36:24 45° NNE 04:36:24 45° NNE
Cosmos 2297 Rocket 4.1 04:39:04 10° NNW 04:41:24 25° NW 04:41:24 25° NW
COSMOS 2455 4.5 04:41:11 10° NNW 04:44:04 30° NNW 04:44:04 30° NNW
CENTAUR R/B 3.9 05:08:21 10° NNW 05:15:26 49° NNE 05:15:26 49° NNE
Cosmos 2263 Rocket 4.5 05:14:04 10° NNW 05:15:40 19° N 05:15:40 19° N
Cosmos 2333 Rocket 4.4 06:52:51 20° NNE 06:52:51 20° NNE 06:54:31 10° NNE
Cosmos 2360 Rocket 4.4 06:56:51 21° NNE 06:56:51 21° NNE 06:58:38 10° NNE
Cosmos 2322 Rocket 4.3 07:06:40 22° N 07:06:40 22° N 07:08:37 10° NNE
Cosmos 2219 Rocket 4.2 07:14:08 23° NE 07:14:08 23° NE 07:16:12 10° NNE
USA 215 4.4 07:10:23 10° NNE 07:15:22 36° NNW 07:15:22 36° NNW
SL-16 R/B 4.4 07:22:36 19° NNW 07:22:36 19° NNW 07:24:37 10° N
ADEOS II 4.1 07:34:09 10° NE 07:36:45 24° ENE 07:36:45 24° ENE
CZ-2D R/B 3.6 07:46:35 10° NNE 07:49:31 33° NNE 07:49:31 33° NNE
SL-16 R/B 3.9 07:51:51 29° E 07:53:30 34° ENE 07:58:59 10° N
COSMOS 2428 3.6 08:10:38 47° NNE 08:10:38 47° NNE 08:14:35 10° NNE
CZ-2C R/B 3.7 08:17:17 42° N 08:17:17 42° N 08:20:47 10° N
Cosmos 2237 Rocket 3.4 08:16:42 35° E 08:16:42 35° E 08:21:26 10° NE
Lacrosse 5 3.9 08:21:30 20° NNW 08:21:30 20° NNW 08:24:33 10° NNE
CZ-2C R/B 3.9 08:19:49 10° NNE 08:23:30 48° NNE 08:23:30 48° NNE
ALOS 3.7 08:20:49 10° NNE 08:23:57 35° ENE 08:23:57 35° ENE
Resurs 1-4 Rocket 3.4 08:27:02 10° N 08:30:10 32° NNW 08:30:10 32° NNW
Cosmos 2333 Rocket 4.2 08:34:50 17° NW 08:34:50 17° NW 08:37:26 10° NNW
Cosmos 2360 Rocket 4.4 08:38:35 14° NW 08:38:35 14° NW 08:40:34 10° NNW
Nadezhda 4 Rocket 3.9 08:44:01 70° NW 08:44:01 70° NW 08:49:39 10° N
H-2A R/B 4.4 08:46:24 31° S 08:46:24 31° S 09:10:10 10° SE
NOSS 0 Rocket 3.8 08:48:14 82° WNW 08:48:15 82° WNW 08:54:26 10° NNE
Cosmos 1680 Rocket 4.5 08:47:51 38° SE 08:48:42 41° ESE 08:53:39 10° NNE
IDEFIX/ARIANE 42P 4.3 08:47:07 10° NNW 08:49:32 21° NW 08:49:32 21° NW
GP-B 4.1 08:46:57 10° N 08:49:53 42° N 08:49:53 42° N
Cosmos 2278 Rocket 3.0 08:46:57 10° NNW 08:52:29 50° ENE 08:57:57 10° SE
Meteor 2-17 Rocket 4.3 08:54:22 71° W 08:54:22 71° W 09:00:28 10° N
Cosmos 1428 Rocket 4.4 08:53:48 70° S 08:54:37 90° ESE 09:00:56 10° N
Cosmos 2219 Rocket 3.9 08:55:50 19° NW 08:55:50 19° NW 08:59:01 10° N
BREEZE-M DEB (TANK) 3.7 09:00:45 81° S 09:00:57 84° SE 09:11:56 10° NE
RESURS DK-1 3.9 09:04:22 28° NNW 09:04:22 28° NNW 09:06:38 10° N
Cosmos 1461 4.3 09:00:09 10° NNW 09:03:38 33° NE 09:07:06 10° ESE
Meteor 2-10 4.5 08:58:24 10° N 09:04:02 68° E 09:07:23 25° SSE
SL-16 R/B 3.9 09:03:20 14° SSE 09:07:00 27° ESE 09:11:39 10° NE
Cosmos 1151 Rocket 3.2 09:07:55 67° NNE 09:07:55 67° NNE 09:11:43 10° N
METEOR-M 4.4 09:04:45 10° NNE 09:10:02 63° ESE 09:11:50 40° SSE
CZ-2C R/B 3.4 09:07:04 10° NNE 09:12:03 47° E 09:14:38 26° SSE
Cosmos 921 Rocket 4.2 09:16:42 30° SE 09:18:01 38° E 09:22:00 10° NNE
ADEOS II 3.3 09:13:54 10° N 09:17:38 27° NW 09:17:38 27° NW
Cosmos 1626 4.2 09:18:46 17° ESE 09:20:08 21° E 09:22:41 10° NE
Meteor 1-19 Rocket 4.3 09:20:01 54° WSW 09:20:57 61° WNW 09:26:53 10° N
Cosmos 1975 4.2 09:19:46 10° N 09:23:21 36° E 09:26:55 10° SSE
Cosmos 923 Rocket 3.9 09:23:20 60° WSW 09:23:58 66° WNW 09:29:12 10° NNE
Cosmos 1092 Rocket 3.9 09:24:59 46° SW 09:26:42 65° W 09:32:48 10° N
CZ-2D R/B 4.0 09:28:25 10° NNW 09:30:50 15° NW 09:30:50 15° NW
Envisat 2.9 09:27:55 10° N 09:33:00 83° WNW 09:34:51 40° SSW
Cosmos 2026 Rocket 4.1 09:32:11 41° SW 09:34:10 57° W 09:40:25 10° N
NOSS 2-2 (E) 4.2 09:30:52 10° NNW 09:35:54 89° WSW 09:43:09 10° SSE
BREEZE-M DEB (TANK) 3.1 09:34:04 38° W 09:36:01 59° NW 09:39:01 10° NE
SL-16 R/B 3.0 09:36:55 35° W 09:36:58 35° W 09:42:35 10° NNW
EO 1 Delta rocket 4.1 09:36:46 10° N 09:41:10 46° WNW 09:41:49 43° WSW
Meteor 1-18 Rocket 4.3 09:39:20 18° S 09:43:36 79° E 09:49:18 10° NNE
Cosmos 1666 Rocket 3.7 09:40:26 10° N 09:44:53 75° E 09:49:18 10° SSE
CZ-4 R/B 4.2 09:44:28 10° N 09:48:57 43° WNW 09:49:59 37° WSW
NOSS 2-2 (D) 4.2 09:45:33 10° NNW 09:50:29 88° NE 09:57:36 10° SSE
Thor Agena Rocket 3.4 09:45:43 10° N 09:50:46 78° WNW 09:53:50 24° SSW
Cosmos 1733 4.4 09:47:51 10° NNW 09:49:45 25° NW 09:49:45 25° NW
Cosmos 1943 Rocket 2.2 09:45:57 10° NNW 09:51:40 88° ENE 09:57:19 10° SSE
Meteor 2-4 Rocket 3.5 09:48:37 25° SSW 09:51:49 72° W 09:57:18 10° N
YAOGAN 6 2.2 09:49:23 10° N 09:52:39 67° WNW 09:53:02 59° WSW
H-2A R/B 3.6 09:50:01 10° NNE 09:54:35 34° E 09:59:14 10° SSE
BlueWalker 3 3.4 09:52:15 10° NNW 09:55:50 37° NE 09:59:25 10° ESE
NOAA 11 4.3 09:53:33 10° N 09:58:53 58° WNW 10:02:18 22° SW
Cosmos 2237 Rocket 3.2 09:58:31 25° W 10:00:22 30° WNW 10:05:20 10° N
ALOS 3.9 09:59:09 10° NNW 10:02:05 17° WNW 10:02:16 17° WNW
Cosmos 2112 Rocket 4.4 10:01:07 28° SW 10:03:34 47° WNW 10:08:44 10° N
Cosmos 1340 Rocket 3.4 10:04:13 32° W 10:04:43 33° WNW 10:08:14 10° N
Cosmos 1867 4.3 10:00:50 10° NW 10:05:28 29° WSW 10:10:03 10° SSW
DMSP B5D2-2 4.0 10:03:52 10° SSE 10:09:04 84° W 10:14:16 10° NNW
Cosmos 1328 Rocket 3.9 10:08:30 24° SW 10:10:50 46° W 10:15:07 10° N
Cosmos 1805 3.6 10:08:47 10° NNW 10:12:12 36° W 10:13:52 23° SW
ATLAS 2AS CENTAUR R/B 2.9 10:07:19 19° SW 10:12:58 70° NW 10:20:12 10° NNE
CRYOSAT 2 4.4 10:08:28 10° N 10:13:22 83° E 10:18:14 10° S
Cosmos 1707 4.4 10:13:32 10° SSE 10:16:49 33° E 10:20:09 10° NNE
SWAS 4.3 10:14:26 10° NNW 10:18:35 62° WSW 10:22:43 10° S
Chandra Rocket (1) 3.3 10:18:55 16° SSW 10:20:51 25° SSE 10:26:30 10° ESE
IRS-1D 4.0 10:17:13 10° N 10:21:59 41° WNW 10:26:05 14° SW
Cosmos 1633 Rocket 3.2 10:18:40 10° NNW 10:22:50 47° W 10:27:00 10° SSW
S3M 4.1 10:18:02 10° N 10:24:13 80° E 10:30:27 10° S
Cosmos 1048 Rocket 4.1 10:21:37 10° SSW 10:26:57 85° ESE 10:32:16 10° NNE
Cosmos 2266 Rocket 3.9 10:23:30 10° SSW 10:29:36 75° W 10:35:40 10° N
Cosmos 1655 Rocket 4.2 10:23:53 10° S 10:30:04 77° E 10:36:17 10° N
SL-08 ROCKET BODY 4.3 10:29:17 10° S 10:35:08 79° W 10:41:07 10° N
Cosmos 2278 Rocket 3.4 10:32:05 10° NW 10:36:05 20° W 10:40:05 10° SW
Cosmos 1461 4.2 10:39:13 10° WNW 10:41:37 16° WSW 10:44:02 10° SSW
ARIANE 5 R/B 3.8 10:36:46 10° NNE 10:41:47 45° E 10:46:45 10° S
USA 308 3.2 10:41:22 13° WSW 10:44:29 43° NW 10:48:15 10° NE
Cosmos 1674 2.4 10:41:13 10° SSW 10:44:36 60° W 10:47:59 10° N
Cosmos 2056 Rocket 4.0 10:41:36 10° NW 10:46:36 39° WSW 10:51:35 10° S
ATLAS 5 CENTAUR R/B 3.7 10:42:40 10° WSW 10:47:07 14° SSW 10:49:51 10° S
Cosmos 494 Rocket 4.4 10:43:09 10° SW 10:48:04 43° WNW 10:52:59 10° N
CZ-2C R/B 3.9 10:46:05 10° NNW 10:49:47 20° WNW 10:53:27 10° WSW
SL-16 R/B 2.8 10:45:38 10° SW 10:50:51 38° WNW 10:56:08 10° N
Cosmos 2315 Rocket 4.1 10:44:43 10° N 10:50:57 87° E 10:57:09 10° S
ARGOS 4.1 10:46:02 10° NNE 10:51:17 53° E 10:56:29 10° S
Cosmos 1766 3.6 10:48:49 10° NNW 10:52:16 39° W 10:55:42 10° SSW
Cosmos 1939 Rocket 2.6 10:48:37 10° N 10:52:23 77° WNW 10:56:09 10° SSW
Cosmos 1452 Rocket 4.1 10:48:34 10° NNW 10:53:48 65° ENE 10:58:59 10° SSE
Cosmos 1626 3.7 10:51:57 10° WSW 10:53:51 14° WNW 10:55:45 10° NW
Cosmos 1340 4.1 10:52:21 10° NW 10:54:21 15° W 10:56:20 10° SW
KORONAS-FOTON 3.8 10:53:09 10° SSW 10:56:44 52° W 11:00:19 10° N
Cosmos 1656 Rocket 3.7 10:54:51 10° NNW 11:00:17 84° ENE 11:05:42 10° SSE
NOSS 3-1 (C) 4.3 10:54:05 10° NNW 11:01:54 87° WSW 11:11:09 10° SSE
